Location: Guadanolo
(41.9167°N, 12.9333°E)
Time: 14:59:46
(UTC+00:00)

Cosmos 2218 Rocket - Pass Details

Date: 16 September 2019
Orbit: 955 x 1006 km, 82.9° (Epoch: 21 October)

Event Time Altitude Azimuth Distance (km) Brightness Sun altitude
Rises 19:34:28 0° 353° (N) 3,742 7.6 -25.3°
Reaches altitude 10° 19:37:01 10° 354° (N) 2,785 6.8 -25.7°
Maximum altitude 19:43:26 83° 82° (E) 1,009 3.9 -26.7°
Enters shadow 19:44:34 63° 159° (SSE) 1,106 4.0 -26.9°
